User: anonymous   Login
Location: Unspecified
(0.0000°N, 0.0000°E)
Time: 09:37:13
(UTC+00:00)
Language:

Kosmos-2190 - Orbit

View from above orbital plane
View from above orbital plane
View from above satellite
View from above satellite

Ground track
Ground track

The orbit data is extracted from the following two-line orbital elements,

1 21979U 92030D   18110.85046215  .00000003  00000-0  11993-3 0  9993
2 21979  74.0030 239.1621 0032111 274.6122 201.4362 12.52237435183262
Epoch (UTC): 20 April 2018 20:24:39
Eccentricity: 0.0032111
inclination: 74.0030°
perigee height: 1430 km
apogee height: 1480 km
right ascension of ascending node: 239.1621°
argument of perigee: 274.6122°
revolutions per day: 12.52237435
mean anomaly at epoch: 201.4362°
orbit number at epoch: 18326

The dashed part of the orbit path shows where the satellite is in the earth's shadow,  

DLR